Nagpur Sonegaon, India

11:57 PM IST on November 21, 2017 (GMT +0530)
Nagpur

Weather History for VANP - November, 2012

Change the Weather History Date:

Thursday, November 1, 2012

  Actual Average Record
Temperature  
Mean Temperature 74 °F -  
Max Temperature 87 °F 87 °F - ()
Min Temperature 61 °F 60 °F - ()
Cooling Degree Days 9    
Growing Degree Days 24 (Base 50)    
Moisture  
Dew Point 62 °F    
Average Humidity 60    
Maximum Humidity 90    
Minimum Humidity 48    
Precipitation  
Precipitation 0.00 in 0.02 in - ()
Sea Level Pressure  
Sea Level Pressure 29.85 in    
Wind  
Wind Speed 2 mph ()    
Max Wind Speed 9 mph    
Max Gust Speed -    
Visibility 2.9 miles    
Events      
T = Trace of Precipitation, MM = Missing Value Source: Averaged Metar Reports

Daily Weather History Graph

Daily Weather History Graph

Search for Another Location

Airport or City:

Trip Planner

Search our weather history database for the weather conditions in past years. The results will help you decide how hot, cold, wet, or windy it might be!

Date:

Astronomy

Nov. 01, 2012 Rise Set
Actual Time 6:16 AM IST 5:37 PM IST
Civil Twilight 5:53 AM IST 6:00 PM IST
Nautical Twilight 5:27 AM IST 6:27 PM IST
Astronomical Twilight 5:01 AM IST 6:53 PM IST
Moon 7:27 PM IST (11/1) 8:11 AM IST (11/1)
Length of Visible Light 12h 07m
Length of Day
11h 21m
Waning Gibbous, 95% of the Moon is Illuminated
Nov 1
Waning Gibbous
Nov 7
Last Quarter
Nov 14
New
Nov 20
First Quarter
Nov 28
Full

Hourly Weather History & Observations

Time (IST) Temp. Heat Index Dew Point Humidity Pressure Visibility Wind Dir Wind Speed Gust Speed Precip Events Conditions
12:10 AM 69.8 °F - 55.4 °F 60% 29.89 in 3.1 mi Calm Calm - N/A   Haze
2:10 AM 69.8 °F - 57.2 °F 64% 29.86 in 3.1 mi Calm Calm - N/A   Haze
2:30 AM 64 °F - 60 °F 81% 29.85 in 2 mi Calm Calm - -   Haze
3:10 AM 69.8 °F - 55.4 °F 60% 29.86 in 3.1 mi Calm Calm - N/A   Haze
4:10 AM 68.0 °F - 55.4 °F 64% 29.86 in 3.1 mi Calm Calm - N/A   Haze
5:10 AM 68.0 °F - 55.4 °F 64% 29.86 in 3.1 mi Calm Calm - N/A   Haze
5:30 AM 62 °F - 60 °F 90% 29.85 in 2 mi Calm Calm - -   Haze
6:10 AM 68.0 °F - 55.4 °F 64% 29.89 in 3.1 mi Calm Calm - N/A   Haze
7:10 AM 68.0 °F - 55.4 °F 64% 29.89 in 3.1 mi Calm Calm - N/A   Haze
8:10 AM 73.4 °F - 59.0 °F 61% 29.89 in 3.1 mi NNE 4.6 mph - N/A   Haze
8:30 AM 74 °F - 61 °F 54% 29.88 in 2 mi NE 6.9 mph - -   Haze
9:10 AM 78.8 °F - 60.8 °F 54% 29.92 in - ENE 9.2 mph - N/A   Haze
11:10 AM 80.6 °F 82.3 °F 64.4 °F 58% 29.89 in 3.7 mi ENE 6.9 mph - N/A   Partly Cloudy
11:30 AM 82 °F - 66 °F 50% 29.83 in 2 mi NE 6.9 mph - -   Scattered Clouds
1:10 PM 86.0 °F 88.2 °F 66.2 °F 51% 29.86 in 3.7 mi East 6.9 mph - N/A   Partly Cloudy
2:10 PM 87.8 °F 91.4 °F 68.0 °F 52% 29.80 in 3.7 mi ENE 6.9 mph - N/A   Scattered Clouds
2:30 PM 85 °F - 68 °F 48% 29.76 in 2 mi East 5.8 mph - -   Partly Cloudy
4:10 PM 86.0 °F 88.2 °F 66.2 °F 51% 29.80 in 3.7 mi East 4.6 mph - N/A   Mostly Cloudy
5:10 PM 84.2 °F 86.6 °F 66.2 °F 55% 29.80 in 3.1 mi ENE 3.5 mph - N/A   Haze
5:30 PM 81 °F - 67 °F 55% 29.77 in 2 mi ENE 2.3 mph - -   Haze
6:10 PM 82.4 °F 84.6 °F 66.2 °F 58% 29.80 in 3.1 mi Calm Calm - N/A   Haze
7:10 PM 80.6 °F 82.7 °F 66.2 °F 61% 29.83 in 3.1 mi Calm Calm - N/A   Haze
8:10 PM 80.6 °F 82.3 °F 64.4 °F 58% 29.86 in 3.1 mi ENE 2.3 mph - N/A   Haze
8:30 PM 80 °F - 67 °F 57% 29.81 in 2 mi ENE 2.3 mph - -   Haze
9:10 PM 80.6 °F 82.3 °F 64.4 °F 58% - 3.1 mi East 3.5 mph - N/A   Haze
10:10 PM 80.6 °F 82.3 °F 64.4 °F 58% 29.86 in 3.1 mi East 4.6 mph - N/A   Haze
11:10 PM 78.8 °F - 64.4 °F 61% 29.86 in 3.1 mi ENE 4.6 mph - N/A   Haze
11:30 PM 78 °F - 67 °F 61% 29.81 in 2 mi ENE 4.6 mph - -   Haze